Weather in Cao Bằng

Vietnam     22°39′43″N   106°16′06″E
В апреле 2022 года жителям России запретили посещать сайт meteo.paraplan.net по решению Генеральной прокуратуры. Аудитория сайта уменьшилась в 10 раз. Владельцы сайта не видят смысла в поддержке погодного сервера в таких условиях. Сайт будет закрыт в октябре.
temp.,
°C
wind,
m/s
gust,
m/s
humid.,
%
clouds,
%
prec.,
mm/h
press.,
hPa
HPBL,
m
29 september, thu
thu2901:00+21n129899 4.3 101088
04:00+21n1299100 4.8 100969
07:00+21nnw2398100 15.1 1011116
10:00+23n1394100 1.1 1011137
13:00+24nne2591100 1.9 1009466
16:00+22nne1396100 1.7 1008120
19:00+21nne1299100 9.9 1010136
22:00+21ne0299100 7.3 1012109
30 september, fri
fri3001:00+21n119898 8.6 101158
04:00+21nne1198100 0.8 101024
07:00+21e0098100 1.7 101231
10:00+23ne1295100 0.8 1013177
13:00+25ese2390100 4.3 1010650
16:00+24ese239385 2.8 1009493
19:00+22e1298100 4.6 101046
22:00+21nne1198100 0.8 101228
1 october, sat
sat101:00+21nne1198100 1.2 101121
04:00+21ne1198100 0.5 101035
07:00+22ene1198100 0.9 101190
10:00+23ese139488 1.0 1012432
13:00+24e239173 2.6 1009502
16:00+25e1385100 0.6 1008604
19:00+22ene129780 2.1 101072
22:00+21ene119870 0.4 101226
2 october, sun
sun201:00+21ne119867 0.6 101120
04:00+21ene019875 0.1 101015
07:00+22e0097100 0.4 101261
10:00+22ne019886 1.6 101354
13:00+25se128866 4.9 1010486
16:00+25ese249310 5.5 1009469
19:00+22ene11965 9.8 101111
22:00+22ene119631 0.4 101311
3 october, mon
mon301:00+21ne119717 0.7 101211
04:00+20ne119816 0.0 101213
07:00+22ne019648 0.0 101492
10:00+26sse118023 0.6 1014677
13:00+27ese237531 2.3 1011931
16:00+25se23904 2.7 1010439
19:00+22e11963 6.2 101315
22:00+21n119623 0.0 101411